Location: Chrząstowo
(52.0654°N, 17.1290°E)
Time: 19:19:26
(UTC+01:00)

ISS - Visible Passes

Search period start: 15 December 2019 00:00
Search period end: 25 December 2019 00:00
Orbit: 411 x 421 km, 51.6° (Epoch: 16 December)

Date Brightness Start Highest point End Pass type
(mag) Time Alt. Az. Time Alt. Az. Time Alt. Az.
20 Dec -0.5 07:10:38 10° S 07:12:30 14° SE 07:14:22 10° ESE visible
22 Dec -1.4 07:08:55 10° SSW 07:11:46 27° SSE 07:14:39 10° E visible
23 Dec -1.0 06:20:55 10° SSW 06:23:22 19° SE 06:25:50 10° E visible
24 Dec -0.8 05:33:18 10° S 05:35:01 13° SE 05:36:43 10° ESE visible
24 Dec -2.7 07:07:56 10° SW 07:11:09 47° SSE 07:14:22 10° E visible
